Home > Weather > Jyväskylä > Past weeks

Flag for Finland Past Weather in Jyväskylä, Finland — Yesterday and Last 2 Weeks

Now
41 °F

Clear.


Feels Like: 41 °F
Forecast: 43 / 58 °F
Wind: No wind

Location: Jyvaskyla Airport

Current Time: Aug 29, 2016 at 1:42:12 AM

Latest Report: Aug 29, 2016 at 1:20 AM


Visibility: 10 mi

Pressure: 30.07 "Hg

Humidity: 93%

Dew Point: 39 °F

Location of JyväskyläLocation

Past Weather in Jyväskylä — Graph

°F

Jyväskylä Temperature Yesterday

Maximum temperature yesterday: 57 °F (at 2:50 PM)
Minimum temperature yesterday: 43 °F (at 6:20 AM)
Average temperature yesterday: 50 °F

High & Low Weather Summary for the Past Weeks

 TemperatureHumidityPressure
High72 °F (Aug 20, 3:20 PM)100% (Aug 14, 12:50 AM)30.21 "Hg (Aug 14, 12:50 AM)
Low41 °F (Aug 29, 12:20 AM)44% (Aug 28, 2:50 PM)29.45 "Hg (Aug 27, 1:20 PM)
Average58 °F84%29.95 "Hg
* Reported Aug 14 12:20 AM — Aug 29 12:20 AM, Jyväskylä, Weather by CustomWeather, © 2016

Note: Actual official high and low records may vary slightly from our data, if they occured in-between our weather recording intervals... More about our weather records

Advertising

Jyväskylä Weather History for the Previous 24 Hours

Scroll right to see more
 ConditionsComfort  
Time TempWeatherWind HumidityBarometerVisibility
12:20 AM
Mon, Aug 29
41 °FClear.1 mph93%30.07 "Hg10 mi
11:50 PM
Sun, Aug 28
43 °FClear.1 mph93%30.07 "Hg10 mi
11:20 PM43 °FPassing clouds.2 mph93%30.07 "HgN/A
10:50 PM43 °FClear.3 mph100%30.07 "Hg10 mi
10:20 PM46 °FClear.2 mph87%30.07 "Hg10 mi
9:50 PM46 °FClear.No wind87%30.07 "Hg10 mi
9:20 PM46 °FSunny.No wind87%30.07 "Hg10 mi
8:50 PM50 °FSunny.1 mph76%30.07 "Hg10 mi
8:20 PM52 °FSunny.No wind72%30.07 "Hg10 mi
7:50 PM54 °FSunny.No wind67%30.07 "Hg10 mi
7:20 PM54 °FSunny.2 mph63%30.07 "Hg10 mi
6:50 PM55 °FSunny.2 mph55%30.09 "Hg10 mi
6:20 PM55 °FSunny.5 mph51%30.09 "Hg10 mi
5:50 PM55 °FSunny.3 mph51%30.09 "Hg10 mi
5:20 PM57 °FPassing clouds.6 mph44%30.09 "HgN/A
4:50 PM57 °FSunny.2 mph44%30.09 "Hg10 mi
4:20 PM55 °FSunny.3 mph47%30.09 "Hg10 mi
3:50 PM55 °FPassing clouds.6 mph47%30.09 "HgN/A
3:20 PM55 °FSunny.7 mph47%30.09 "Hg10 mi
2:50 PM57 °FSunny.9 mph44%30.09 "Hg10 mi
2:20 PM55 °FSunny.6 mph47%30.09 "Hg10 mi
1:50 PM55 °FPassing clouds.9 mph47%30.09 "HgN/A
1:20 PM55 °FSunny.12 mph47%30.09 "Hg10 mi
12:50 PM54 °FSunny.10 mph51%30.09 "Hg10 mi
12:20 PM54 °FSunny.9 mph54%30.09 "Hg10 mi
11:50 AM52 °FPassing clouds.9 mph58%30.09 "HgN/A
11:20 AM52 °FSunny.10 mph58%30.09 "Hg10 mi
10:50 AM52 °FSunny.12 mph62%30.09 "Hg10 mi
10:20 AM52 °FSunny.10 mph62%30.07 "Hg10 mi
9:50 AM50 °FPassing clouds.10 mph67%30.07 "HgN/A
9:20 AM50 °FSunny.13 mph67%30.04 "Hg10 mi
8:50 AM48 °FScattered clouds.12 mph71%30.04 "HgN/A
8:20 AM48 °FSunny.9 mph76%30.01 "Hg10 mi
7:50 AM46 °FSunny.8 mph82%30.01 "Hg10 mi
7:20 AM45 °FPassing clouds.5 mph87%29.98 "HgN/A
6:50 AM43 °FClear.7 mph87%29.98 "Hg10 mi
6:20 AM43 °FClear.5 mph93%29.95 "Hg10 mi
5:50 AM45 °FClear.9 mph87%29.95 "Hg10 mi
5:20 AM45 °FPassing clouds.10 mph87%29.95 "HgN/A
4:50 AM46 °FPassing clouds.12 mph87%29.92 "HgN/A
4:20 AM45 °FClear.10 mph87%29.92 "Hg10 mi
3:50 AM46 °FClear.10 mph87%29.89 "Hg10 mi
3:20 AM48 °FPassing clouds.12 mph82%29.89 "HgN/A
2:50 AM48 °FPassing clouds.13 mph82%29.89 "HgN/A
2:20 AM48 °FPassing clouds.12 mph82%29.86 "HgN/A
1:50 AM48 °FPassing clouds.14 mph82%29.86 "HgN/A
1:20 AM50 °FOvercast.14 mph76%29.83 "HgN/A
Weather by CustomWeather, © 2016

See weather overviewHow to use our weather pages